Date,TemperatureHighF,TemperatureAvgF,TemperatureLowF,DewpointHighF,DewpointAvgF,DewpointLowF,HumidityHigh,HumidityAvg,HumidityLow,PressureMaxIn,PressureMinIn,WindSpeedMaxMPH,WindSpeedAvgMPH,GustSpeedMaxMPH,PrecipitationSumIn
2013-11-1,51.5,43.9,34.4,31.7,26.9,22.8,74,52,35,30.21,29.76,9,2,18,0.00
2013-11-2,65.1,45.4,27.3,33.8,25.6,15.9,80,50,23,30.23,29.57,7,1,12,0.00
2013-11-3,68.7,53.9,36.9,28.6,22.7,15.1,68,32,16,29.70,29.28,14,2,26,0.00
2013-11-4,44.9,36.1,30.2,28.5,21.7,14.2,84,57,36,30.03,29.70,13,4,20,0.00
2013-11-5,43.8,34.2,26.1,24.3,16.7,6.7,74,51,23,30.24,29.88,10,2,20,0.00
2013-11-6,52.1,37.4,22.6,19.6,15.4,8.7,62,42,26,30.35,30.19,16,3,30,0.00
2013-11-7,61.0,43.3,29.6,27.9,21.9,16.0,60,44,26,30.41,29.90,10,1,13,0.00
2013-11-8,64.9,52.7,38.3,28.1,23.9,19.0,51,34,20,29.90,29.67,11,2,15,0.00
2013-11-9,66.7,47.7,34.9,34.1,27.8,21.5,65,48,23,30.17,29.87,8,1,14,0.00
2013-11-10,68.1,48.6,32.2,29.6,26.2,22.8,79,47,20,30.24,30.00,5,1,9,0.00
2013-11-11,67.3,40.6,29.8,34.0,25.6,21.5,88,60,19,30.62,30.05,16,2,24,0.00
2013-11-12,61.8,44.3,29.9,34.0,28.7,25.3,88,58,28,30.68,30.28,7,1,12,0.00
2013-11-13,69.7,50.7,32.5,25.4,20.1,15.7,67,34,13,30.29,29.83,7,1,12,0.00
2013-11-14,58.6,49.0,40.7,34.4,29.3,19.1,62,47,34,30.01,29.64,11,2,21,0.00
2013-11-15,64.1,49.5,32.3,27.9,22.6,15.4,68,38,19,29.65,29.29,13,2,26,0.00
2013-11-16,60.0,45.1,32.8,31.3,24.3,18.3,77,48,21,29.43,29.16,18,2,26,0.00
2013-11-17,56.2,43.5,35.1,26.4,21.0,17.6,64,42,23,30.01,29.41,15,3,22,0.00
2013-11-18,65.7,44.8,27.8,21.2,18.0,14.8,66,38,14,30.17,29.89,8,1,10,0.00
2013-11-19,61.5,46.8,32.5,28.6,21.4,15.8,56,38,22,29.91,29.61,9,1,13,0.00
2013-11-20,58.3,46.6,28.8,28.4,25.2,21.9,79,44,29,29.97,29.61,17,2,27,0.00
2013-11-21,28.5,16.3,12.9,23.2,12.7,9.0,92,85,81,30.87,29.97,10,3,17,0.00
2013-11-22,34.7,26.2,15.6,21.8,17.3,10.5,83,70,52,30.83,30.58,6,1,12,0.10
2013-11-23,36.2,28.9,24.7,20.4,16.2,7.8,74,59,46,30.74,30.38,5,0,9,0.01
2013-11-24,35.7,28.9,22.3,26.6,21.8,18.2,85,75,63,30.38,30.03,6,0,10,0.00
2013-11-25,39.7,35.3,28.5,28.2,23.5,17.6,81,63,43,30.38,30.04,10,2,15,0.00
2013-11-26,48.4,35.7,26.3,25.2,22.1,20.3,84,61,34,30.50,30.24,8,1,10,0.00
2013-11-27,64.5,43.9,27.4,23.9,21.0,16.8,70,45,20,30.24,29.92,8,2,13,0.00
2013-11-28,47.2,36.3,28.0,28.1,23.8,20.2,76,61,45,30.24,30.04,7,1,10,0.00
2013-11-29,62.3,43.2,28.3,25.0,22.3,20.0,78,49,22,30.20,29.99,7,1,10,0.00
2013-11-30,59.1,42.6,28.3,21.2,18.2,15.9,64,41,20,30.21,30.01,6,1,9,0.00